Regional Weather Roundup
Issued by NWS

Home | Current Version | Previous Version | Text Only | Print | Product List | Glossary On
Versions: 1 2 3 4 5 6 7 8 9 10 11 12 13 14 15 16 17 18 19 20 21 22 23 24 25 26 27
000
ASUS45 KPSR 201710
RWRAZ

ARIZONA HOURLY REGIONAL WEATHER ROUNDUP
NATIONAL WEATHER SERVICE PHOENIX AZ
1000 AM MST TUE FEB 20 2018

NOTE: FAIR INDICATES FEW OR NO CLOUDS BELOW 12,000 FEET WITH NO
SIGNIFICANT WEATHER AND/OR OBSTRUCTIONS TO VISIBILITY.

AZZ001>003-036-201800-
NORTHWEST ARIZONA

CITY           SKY/WX    TMP DP  RH WIND       PRES   REMARKS
BULLHEAD CITY  SUNNY     48   9  20 N14       30.17R
KINGMAN        SUNNY     36  11  35 NE6       30.09R WCI  31
$$

AZZ004>008-015-016-018-201800-
NORTH CENTRAL ARIZONA

CITY           SKY/WX    TMP DP  RH WIND       PRES   REMARKS
GRAND CANYON   MOSUNNY   20  11  68 NW9       29.95R WCI   9
WILLIAMS       SUNNY     23  -2  33 W12       29.94R WCI  12
PRESCOTT       SUNNY     32   9  38 CALM      30.02R
FLAGSTAFF      SUNNY     22  -6  29 VRB6      29.94R WCI  14
PAYSON         SUNNY     36   9  32 CALM      29.99S
PAGE           SUNNY     31  15  52 NW5       30.00R WCI  26
$$

AZZ009>014-017-201800-
NORTHEAST ARIZONA

CITY           SKY/WX    TMP DP  RH WIND       PRES   REMARKS
WINSLOW        MOSUNNY   35   1  23 W6        30.00R WCI  30
SAINT JOHNS    CLOUDY    26  22  84 NE5       29.99R WCI  20
WINDOW ROCK    PTSUNNY   25  10  53 SW15      29.94R WCI  13
SHOW LOW       CLOUDY    25  19  80 S8        29.99R WCI  16
$$

AZZ540-542>544-546-548-201800-
GREATER PHOENIX AREA

CITY           SKY/WX    TMP DP  RH WIND       PRES   REMARKS
PHOENIX        MOSUNNY   48  17  29 CALM      30.07R
BUCKEYE        SUNNY     46  14  27 W7        30.10R
LUKE AFB       SUNNY     48  17  29 CALM      30.07R
DEER VALLEY    SUNNY     48  15  26 CALM      30.06R
SCOTTSDALE     SUNNY     48  18  30 CALM      30.08R
MESA-FALCON    MOSUNNY   48  16  27 NW6       30.07R
MESA-GATEWAY   MOSUNNY   48  14  25 CALM      30.08R
CHANDLER       MOSUNNY   50  12  22 NW6       30.07R
$$

AZZ539-553-201800-
SOUTHWEST MARICOPA COUNTY AND PINAL COUNTY

CITY           SKY/WX    TMP DP  RH WIND       PRES   REMARKS
CASA GRANDE      N/A     49  15  25 W6        30.07R
GILA BEND      FAIR      48  11  23 W6        30.10R
$$

AZZ503-504-507>509-201800-
SOUTHEAST ARIZONA

CITY           SKY/WX    TMP DP  RH WIND       PRES   REMARKS
TUCSON         CLOUDY    44  32  62 S5        30.06R
DAVIS-MONTHAN  CLOUDY    45  33  64 CALM      30.04R
RYAN FIELD     SUNNY     46  28  49 S3        30.06S
NOGALES        CLOUDY    43  37  79 W3        30.02R
SIERRA VISTA   PTSUNNY   37  35  92 N8        30.01R WCI  31
DOUGLAS        CLOUDY    50  37  61 W21       29.98S
SAFFORD        CLOUDY    44  27  51 W9        30.01R
$$

AZZ532-201800-
SOUTHWEST ARIZONA

CITY           SKY/WX    TMP DP  RH WIND       PRES   REMARKS
YUMA           SUNNY     53  13  20 N13       30.14R
$$

CAZ041-043-047-048-061-525>527-560>570-201800-
SOUTHERN CALIFORNIA

CITY           SKY/WX    TMP DP  RH WIND       PRES   REMARKS
DOWNTOWN L.A.  SUNNY     50  13  22 VRB3      30.16R
L.A. AIRPORT   SUNNY     51  15  23 E6        30.16R
SAN DIEGO      MOSUNNY   51  27  39 CALM      30.19R
BURBANK        SUNNY     46  14  27 S3        30.14S
ONTARIO        SUNNY     43  18  36 W3        30.14S
RIVERSIDE      SUNNY     47  19  33 VRB3      30.16R
PALM SPRINGS   SUNNY     53   6  15 VRB6      30.19R
EL CENTRO NAS  SUNNY     53  23  31 N8        30.19R
IMPERIAL       SUNNY     52  24  33 N8        30.16R
BLYTHE         SUNNY     51   8  17 N12       30.16R
NEEDLES        SUNNY     50   5  16 N7        30.17R
$$

NVZ020-UTZ003-201800-
SOUTHERN NEVADA-UTAH

CITY           SKY/WX    TMP DP  RH WIND       PRES   REMARKS
LAS VEGAS      SUNNY     40   6  24 CALM      30.14R
SALT LAKE CITY PTSUNNY   23  12  62 SW6       30.06R WCI  16
$$

NMZ009-TXZ055-201800-
NEW MEXICO-WEST TEXAS

CITY           SKY/WX    TMP DP  RH WIND       PRES   REMARKS
ALBUQUERQUE    PTSUNNY   33  15  47 NW9       30.00R WCI  25
EL PASO        MOSUNNY   58  33  39 W15G26    29.95S
$$


........................KEY........................
SKY/WX - SKY CONDITION/WEATHER
TMP    - TEMPERATURE IN FAHRENHEIT
DP     - DEW POINT IN FAHRENHEIT
RH     - RELATIVE HUMIDITY IN PERCENT
WIND   - DIRECTION AND SPEED IN MILES PER HOUR (MPH)
VRB    - VARIABLE WIND DIRECTION
PRES   - MEAN SEA LEVEL PRESSURE IN INCHES OF MERCURY
         F - FALLING PRESSURE   R - RISING PRESSURE
         S - STEADY PRESSURE
VSB    - VISIBILITY IN MILES
HX     - HEAT INDEX IN FAHRENHEIT
WCI    - WIND CHILL INDEX IN FAHRENHEIT
TC     - TEMPERATURE IN CELSIUS WHICH IS ALSO KNOWN AS
         TEMPERATURE IN CENTIGRADE
AFB    - AIR FORCE BASE
         LUKE AFB IS LUKE AIR FORCE BASE
         DAVIS-MONTHAN IS DAVIS-MONTHAN AIR FORCE BASE
NAS    - NAVAL AIR STATION
         EL CENTRO NAS IS EL CENTRO NAVAL AIR STATION
N/A    - NOT AVAILABLE





USA.gov is the U.S. government's official web portal to all federal, state and local government web resources and services.